Location: Prague
(50.0830°N, 14.4670°E)
Time: 03:05:43
(UTC+01:00)

XW-2F - Pass Details

Date: 06 December 2021
Orbit: 495 x 515 km, 97.5° (Epoch: 16 January)

Event Time Altitude Azimuth Distance (km) Brightness Sun altitude
Rises 18:11:23 0° 199° (SSW) 2,605 ? -19.9°
Reaches altitude 10° 18:13:49 10° 215° (SW) 1,730 ? -20.3°
Maximum altitude 18:16:45 22° 267° (W) 1,167 ? -20.8°
Drops below altitude 10° 18:19:44 10° 319° (NW) 1,751 ? -21.3°
Sets 18:22:13 0° 335° (NNW) 2,647 ? -21.6°
